Location: Unspecified
(48.2082°N, 0.0000°E)
Time: 02:19:23
(UTC+00:00)

Vanguard 1 - Visible Passes

Search period start: 26 June 2019 00:00
Search period end: 06 July 2019 00:00
Orbit: 654 x 3830 km, 34.2° (Epoch: 24 June)

Date Brightness Start Highest point End Pass type
(mag) Time Alt. Az. Time Alt. Az. Time Alt. Az.
26 Jun 13.0 00:14:22 22° S 00:23:22 29° SSE 00:35:46 10° E visible
26 Jun 12.4 02:28:25 10° SW 02:46:11 43° S 02:56:53 10° ESE visible
26 Jun 13.5 22:19:08 16° SE 22:21:34 16° SE 22:31:20 10° ESE visible
27 Jun 12.9 00:31:35 19° SSW 00:44:19 35° SSE 00:57:13 10° E visible
27 Jun 12.3 02:49:19 10° WSW 03:07:09 45° S 03:17:44 10° ESE visible
27 Jun 13.3 22:35:02 18° SSE 22:42:16 21° SE 22:54:39 10° E visible
28 Jun 12.7 00:47:13 12° SW 01:05:18 39° SSE 01:18:26 10° E visible
28 Jun 12.3 03:10:24 10° WSW 03:28:07 46° S 03:38:30 10° ESE visible
28 Jun 13.2 22:46:01 10° SSW 23:03:02 27° SE 23:16:55 10° E visible
29 Jun 12.6 01:06:23 10° SW 01:26:19 44° SSE 01:39:31 10° E visible
29 Jun 13.6 20:54:31 10° SSE 21:01:31 12° SE 21:08:15 10° ESE visible
29 Jun 13.1 23:05:12 10° SSW 23:23:52 33° SSE 23:38:41 10° E visible
30 Jun 12.6 01:27:05 10° SW 01:47:22 47° S 02:00:29 10° ESE visible
30 Jun 13.5 21:09:28 10° SSE 21:21:59 18° SE 21:33:41 10° E visible
30 Jun 12.9 23:24:53 10° SSW 23:44:46 38° SSE 00:00:08 10° E visible
01 Jul 12.5 01:47:59 10° WSW 02:08:24 49° S 02:21:22 10° ESE visible
01 Jul 13.3 21:26:59 10° S 21:42:31 23° SE 21:56:48 10° E visible
01 Jul 12.8 23:45:00 10° SW 00:05:44 43° SSE 00:21:23 10° E visible
02 Jul 12.5 02:09:05 10° WSW 02:29:25 50° S 02:42:09 10° ESE visible
02 Jul 13.2 21:45:35 10° SSW 22:03:09 29° SE 22:19:03 10° E visible
03 Jul 12.8 00:05:25 10° SW 00:26:46 47° SSE 00:42:29 10° E visible
03 Jul 12.5 02:30:18 10° WSW 02:50:24 49° S 03:02:52 10° ESE visible
03 Jul 13.1 22:04:51 10° SSW 22:23:51 35° SSE 22:40:49 10° E visible
04 Jul 12.7 00:26:06 10° SW 00:47:49 50° S 01:03:30 10° ESE visible
04 Jul 12.5 02:51:39 10° W 03:11:17 47° SSW 03:23:28 10° SE visible
04 Jul 13.0 22:24:37 10° SSW 22:44:40 40° SSE 23:02:19 10° E visible
05 Jul 12.7 00:47:00 10° WSW 01:08:54 52° S 01:24:26 10° ESE visible
05 Jul 12.5 03:13:05 10° W 03:32:05 44° SSW 03:43:57 10° SE visible
05 Jul 13.4 20:27:19 10° S 20:42:29 24° SE 20:57:59 10° E visible
05 Jul 12.9 22:44:44 10° SW 23:05:35 45° SSE 23:23:36 10° E visible
